Location: Observatory
(52.1446°N, 0.4624°W)
Time: 01:21:48
(UTC+00:00)

ISS - Pass Details

Date: 30 January 2019
Orbit: 403 x 411 km, 51.6° (Epoch: 20 February)

Event Time Altitude Azimuth Distance (km) Brightness Sun altitude
Rises 17:58:38 0° 254° (WSW) 2,331 2.3 -11.3°
Reaches altitude 10° 18:00:43 10° 252° (WSW) 1,474 0.6 -11.6°
Maximum altitude 18:04:00 71° 168° (SSE) 439 -3.7 -12.1°
Enters shadow 18:06:01 22° 88° (E) 965 -2.5 -12.4°
